Regional Weather Roundup
Issued by NWS

Home | Current Version | Previous Version | Graphics & Text | Print | Product List | Glossary On
Versions: 1 2 3 4 5 6 7 8 9 10 11 12 13 14 15 16 17 18 19 20 21 22 23 24 25 26 27 28 29 30 31 32 33 34 35 36 37 38 39 40 41 42 43 44 45 46 47 48 49 50
000
ASUS43 KTOP 140459
RWRKS

WEATHER ROUNDUP FOR KANSAS
NATIONAL WEATHER SERVICE GOODLAND KS
1100 PM CST WED DEC 13 2017

NOTE:  "FAIR" INDICATES FEW OR NO CLOUDS BELOW 12,000 FEET WITH NO
SIGNIFICANT WEATHER AND/OR OBSTRUCTIONS TO VISIBILITY.

KSZ001>006-013>018-027>032-041>047-140600-
NORTHWEST KANSAS

CITY           SKY/WX    TMP DP  RH WIND       PRES   REMARKS
GOODLAND       CLOUDY    36  17  46 N7        30.09R
HILL CITY      PTCLDY    36  21  54 NW8       30.07R
RUSSELL        CLEAR     29  20  69 NW9       30.01R
$$

KSZ061>065-074>080-084>089-140600-
SOUTHWEST KANSAS

CITY           SKY/WX    TMP DP  RH WIND       PRES   REMARKS
DODGE CITY     CLOUDY    40  17  39 N6        30.04R
GARDEN CITY    CLOUDY    40  16  37 NE9       30.04R
GREAT BEND     CLEAR     30  18  60 NW8       30.02R
LIBERAL        CLOUDY    41  18  39 N8        30.05R
$$

KSZ066>073-081>083-090>101-140600-
SOUTHEAST KANSAS

CITY           SKY/WX    TMP DP  RH WIND       PRES   REMARKS
CHANUTE        CLEAR     41  26  55 N7        29.95R
COFFEYVILLE    CLEAR     40  26  57 NW8       29.95R
HUTCHINSON     CLEAR     41  24  51 N12       29.99R
MEDICINE LODGE   N/A     45  21  38 N9        30.00R
NEWTON         CLEAR     36  22  56 N10       29.98R WCI  28
PARSONS        CLEAR     38  26  62 N6        29.95R
WICHITA INTL   PTCLDY    38  23  55 NW9       29.97R
WICHITA JABRA  CLEAR     40  24  53 N10       29.97R WCI  33
WICHITA MCCONL PTCLDY    41  22  46 N6        29.97R
WINFIELD       CLOUDY    43  26  51 N6        29.99R
$$

KSZ007>012-019>026-033>040-048>060-102>105-140600-
NORTHEAST KANSAS

CITY           SKY/WX    TMP DP  RH WIND       PRES   REMARKS
CONCORDIA      CLEAR     35  25  66 N10       30.01R WCI  27
EMPORIA        CLEAR     38  26  62 N14       29.97R WCI  30
LAWRENCE       CLEAR     33  25  72 NW6       29.98R
MANHATTAN      CLEAR     39  27  62 N6        30.00R
OLATHE IND     CLEAR     32  26  78 NW9       29.98R
OLATHE EXE     CLEAR     38  28  67 N8        29.96R
SALINA         CLEAR     35  23  61 NW6       30.00R
TOPEKA BILLARD CLEAR     36  28  73 N7        29.98S
TOPEKA FORBES  CLEAR     39  28  64 N8        29.97S
$$




USA.gov is the U.S. government's official web portal to all federal, state and local government web resources and services.